This is the latest recevied weather packets stored in our database for station/object WL7CLI. If no packets are shown the sender has not sent any weather packets the latest 10 day(s).
| Time | Temp. | Humidity | Pressure | Rain* | Wind** | Luminosity | Snow |
|---|---|---|---|---|---|---|---|
| 1788559524 | 35° C | 53% | 1009.3 hPa | 0 mm | - | - | - |
| 1788559090 | 35° C | 54% | 1011.3 hPa | 0 mm | - | - | - |
| 1788558630 | 35.56° C | 54% | 1009.2 hPa | 0 mm | - | - | - |
| 1788558324 | 35.56° C | 53% | 1009.3 hPa | 0 mm | - | - | - |
| 1788557429 | 35.56° C | 54% | 1009.3 hPa | 0 mm | - | - | - |
| 1788557290 | 35.56° C | 54% | 1011.5 hPa | 0 mm | - | - | - |
| 1788557124 | 35.56° C | 53% | 1009.3 hPa | 0 mm | - | - | - |
| 1788556230 | 35° C | 56% | 1009.3 hPa | 0 mm | - | - | - |
| 1788555925 | 34.44° C | 57% | 1009.3 hPa | 0 mm | - | - | - |
| 1788555490 | 34.44° C | 55% | 1011.4 hPa | 0 mm | - | - | - |
| 1788555029 | 34.44° C | 57% | 1009.3 hPa | 0 mm | - | - | - |
| 1788554724 | 34.44° C | 58% | 1009.3 hPa | 0 mm | - | - | - |
| 1788553829 | 34.44° C | 55% | 1009.3 hPa | 0 mm | - | - | - |
| 1788553691 | 34.44° C | 55% | 1011.5 hPa | 0 mm | - | - | - |
| 1788553524 | 34.44° C | 56% | 1009.5 hPa | 0 mm | - | - | - |
| 1788552325 | 34.44° C | 54% | 1009.7 hPa | 0 mm | - | - | - |
| 1788551890 | 34.44° C | 55% | 1012 hPa | 0 mm | - | - | - |
| 1788551429 | 35° C | 55% | 1010 hPa | 0 mm | - | - | - |
| 1788551124 | 35.56° C | 56% | 1009.9 hPa | 0 mm | - | - | - |
| 1788550230 | 35.56° C | 53% | 1009.6 hPa | 0 mm | - | - | - |
| 1788550091 | 35.56° C | 53% | 1011.6 hPa | 0 mm | - | - | - |
| 1788549924 | 35.56° C | 56% | 1009.5 hPa | 0 mm | - | - | - |
| 1788549029 | 35° C | 55% | 1009.7 hPa | 0 mm | - | - | - |
| 1788548725 | 34.44° C | 55% | 1009.7 hPa | 0 mm | - | - | - |
| 1788548291 | 34.44° C | 55% | 1012 hPa | 0 mm | - | - | - |
* Rain latest hour (hover to see other rain measurements)
** Current wind speed in m/s (hover to see current wind gust speed)